Location: *
(0.1100°N, 5.5000°E)
Time: 11:44:27
(UTC+00:00)

CCE 1 Rocket - Visible Passes

Search period start: 02 June 2023 00:00
Search period end: 12 June 2023 00:00
Orbit: 544 x 3979 km, 28.9° (Epoch: 01 June)

Date Brightness Start Highest point End Pass type
(mag) Time Alt. Az. Time Alt. Az. Time Alt. Az.
02 Jun 7.2 01:41:47 20° ESE 01:41:47 20° ESE 01:44:14 10° E visible
02 Jun 5.0 03:54:57 35° WSW 03:59:47 85° NNW 04:05:48 10° ENE visible
02 Jun 7.8 18:08:54 10° W 18:25:09 44° SSW 18:46:50 12° SE visible
02 Jun 8.1 20:40:00 10° WSW 20:59:10 29° S 20:59:58 29° S visible
03 Jun 6.6 02:06:25 37° ESE 02:06:25 37° ESE 02:11:15 10° E visible
03 Jun 5.2 04:19:34 23° WSW 04:26:03 56° NW 04:31:44 10° NE visible
03 Jun 8.0 18:36:53 10° W 18:53:34 37° SSW 19:11:16 17° SE visible
03 Jun 8.2 21:09:16 10° SW 21:24:24 27° SSW 21:24:24 27° SSW visible
04 Jun 5.9 02:31:02 61° ESE 02:31:02 61° ESE 02:37:56 10° ENE visible
04 Jun 5.8 04:44:11 12° W 04:52:08 35° NW 04:57:20 10° NNE visible
04 Jun 8.1 19:05:18 10° WSW 19:22:22 32° SSW 19:35:40 21° SSE visible
04 Jun 8.3 21:38:12 10° SW 21:48:48 23° SSW 21:48:48 23° SSW visible
05 Jun 5.6 02:55:36 78° SW 02:56:31 86° SSE 03:04:17 10° ENE visible
05 Jun 6.3 05:11:48 10° W 05:18:12 21° NW 05:22:31 10° N visible
05 Jun 8.1 19:34:02 10° WSW 19:51:31 29° S 20:00:04 25° SSE visible
05 Jun 8.4 22:06:38 10° SW 22:13:12 19° SSW 22:13:12 19° SSW visible
06 Jun 7.5 01:06:59 19° E 01:06:59 19° E 01:09:05 10° E visible
06 Jun 5.6 03:20:08 53° W 03:23:00 69° NW 03:30:21 10° NE visible
06 Jun 7.8 17:33:07 10° WSW 17:46:49 37° SSW 18:07:44 10° SE visible
06 Jun 8.0 20:02:49 10° SW 20:20:54 28° S 20:24:28 27° S visible
06 Jun 8.6 22:34:33 10° SW 22:37:36 15° SW 22:37:36 15° SW visible
07 Jun 6.9 01:31:29 34° E 01:31:29 34° E 01:35:55 10° ENE visible
07 Jun 5.9 03:44:37 33° W 03:49:14 47° NW 03:56:08 10° NE visible
07 Jun 8.0 18:01:07 10° WSW 18:15:21 32° S 18:35:31 10° SE visible
07 Jun 8.1 20:31:22 10° SW 20:48:52 29° S 20:48:52 29° S visible
08 Jun 6.4 01:55:56 55° ENE 01:55:56 55° ENE 02:02:26 10° ENE visible
08 Jun 6.3 04:09:04 19° W 04:15:24 32° NW 04:21:39 10° NNE visible
08 Jun 8.0 18:29:24 10° WSW 18:44:15 28° S 19:00:09 15° SE visible
08 Jun 8.1 20:59:32 10° SW 21:13:17 28° S 21:13:17 28° S visible
09 Jun8.200:07:13E00:07:13E23:26:25SWvisible
09 Jun 6.0 02:20:20 74° NNE 02:20:20 74° NNE 02:28:38 10° NE visible
09 Jun 6.7 04:33:52 10° W 04:41:37 20° NW 04:46:47 10° N visible
09 Jun 8.1 18:57:46 10° SW 19:13:25 27° S 19:24:34 20° SE visible
09 Jun 8.2 21:27:16 10° SW 21:37:43 26° SSW 21:37:43 26° SSW visible
10 Jun 7.8 00:31:34 17° ENE 00:31:34 17° ENE 00:33:23 10° ENE visible
10 Jun 6.2 02:44:41 58° NW 02:45:37 59° NW 02:54:36 10° NE visible
10 Jun 7.0 05:04:24 10° WNW 05:08:03 12° NW 05:11:01 10° NNW visible
10 Jun 8.0 19:25:57 10° SW 19:42:43 28° S 19:49:02 25° SSE visible
10 Jun 8.3 21:54:37 10° SW 22:02:10 23° SSW 22:02:10 23° SSW visible
11 Jun 7.3 00:55:52 31° ENE 00:55:52 31° ENE 01:00:05 10° ENE visible
11 Jun 6.5 03:08:59 38° WNW 03:11:58 43° NW 03:20:20 10° NNE visible
11 Jun 7.9 19:53:47 10° SW 20:11:58 30° SSE 20:13:31 30° SSE visible
11 Jun 8.4 22:21:46 10° SW 22:26:40 19° SW 22:26:40 19° SW visible
